Regional Weather Roundup
Issued by NWS

Home | Current Version | Previous Version | Graphics & Text | Print | Product List | Glossary On
Versions: 1 2 3 4 5 6 7 8 9 10 11 12 13 14 15 16 17 18 19 20 21 22 23 24 25 26 27 28 29 30 31 32 33 34 35 36 37 38 39 40 41 42 43 44 45 46 47 48 49 50
000
ASUS45 KCYS 100610
RWRWY

WYOMING REGIONAL WEATHER ROUNDUP
NATIONAL WEATHER SERVICE CHEYENNE WY
1100 PM MST TUE FEB 09 2016

NOTE:  "FAIR" INDICATES FEW OR NO CLOUDS BELOW 12,000 FEET
WITH NO SIGNIFICANT WEATHER AND/OR OBSTRUCTIONS TO VISIBILITY.

WYZ001-100700-
YELLOWSTONE NATIONAL PARK

CITY           SKY/WX    TMP DP  RH WIND       PRES   REMARKS
LK YELLOWSTONE   N/A     13   9  84 CALM      30.43F
6HR MIN TEMP:  12; 6HR MAX TEMP:  29;

W YELLOWSTONE  NOT AVBL

$$
WYZ002>013-054>058-071-098>099-100700-
NORTHERN WYOMING

CITY           SKY/WX    TMP DP  RH WIND       PRES   REMARKS
JACKSON        FAIR       9   9 100 N6        30.45S WCI  -1
CODY           FAIR      45  19  36 W13G18    30.18F
GREYBULL       FAIR      26  21  81 CALM      30.21S
6HR MIN TEMP:  26; 6HR MAX TEMP:  48;

WORLAND        FAIR      27  23  85 S7        30.21F WCI  19
6HR MIN TEMP:  26; 6HR MAX TEMP:  43;

SHERIDAN       FAIR      32  21  64 CALM      30.08F
6HR MIN TEMP:  31; 6HR MAX TEMP:  54;

BUFFALO        FAIR      41  20  43 SW3       30.11F
6HR MIN TEMP:  38; 6HR MAX TEMP:  54;

GILLETTE       FAIR      41  25  53 SW16      30.08F
6HR MIN TEMP:  38; 6HR MAX TEMP:  46;

HULETT         FAIR      41  28  60 SW14      30.07F
NEWCASTLE      FAIR      34  27  75 N13       30.10F WCI  25

$$
WYZ014>020-022>026-101>103-100700-
CENTRAL WYOMING

CITY           SKY/WX    TMP DP  RH WIND       PRES   REMARKS
BIG PINEY      FAIR      19  14  81 E6        30.40F WCI  11
6HR MIN TEMP:  19; 6HR MAX TEMP:  44;

PINEDALE       FAIR      19  18  93 SE5       30.42R WCI  13
DUBOIS         FAIR      30  16  55 NW12      30.34F WCI  21
LANDER         FAIR      29  19  66 CALM      30.26F
6HR MIN TEMP:  23; 6HR MAX TEMP:  37;

RIVERTON       FAIR      23  18  81 NW5       30.28F WCI  17
6HR MIN TEMP:  21; 6HR MAX TEMP:  39;

CASPER         FAIR      36  22  56 SW26G38   30.21F WCI  24
6HR MIN TEMP:  34; 6HR MAX TEMP:  38;

DOUGLAS        FAIR      30  22  72 N5          N/A  WCI  25
6HR MIN TEMP:  29; 6HR MAX TEMP:  43;


$$
WYZ021-027>030-104>119-100700-
SOUTHERN WYOMING

CITY           SKY/WX    TMP DP  RH WIND       PRES   REMARKS
EVANSTON       FAIR      30  20  66 S6        30.43F WCI  24
6HR MIN TEMP:  28; 6HR MAX TEMP:  37;

FORT BRIDGER   CLEAR     34  18  51 W12       30.44F WCI  25
ROCK SPRINGS   FAIR      31  20  63 W9        30.40S WCI  23
6HR MIN TEMP:  31; 6HR MAX TEMP:  39;

DIXON          FAIR      13  10  87 CALM      30.47F
RAWLINS        FAIR      35  18  49 SW22G28   30.38F WCI  23
6HR MIN TEMP:  27; 6HR MAX TEMP:  37;

SARATOGA       FAIR      14  12  92 CALM      30.40S
LARAMIE        FAIR      30  15  53 W6        30.30S WCI  24
6HR MIN TEMP:  23; 6HR MAX TEMP:  39;

CHEYENNE       FAIR      38  16  40 W13       30.21F WCI  30
6HR MIN TEMP:  35; 6HR MAX TEMP:  45;

TORRINGTON     FAIR      36  25  64 NW7       30.15F WCI  30
6HR MIN TEMP:  35; 6HR MAX TEMP:  49;

PINE BLUFFS    FAIR      32  23  69 W12       30.21S WCI  23

$$



USA.gov is the U.S. government's official web portal to all federal, state and local government web resources and services.